OSCAR 7 (AO-7)

Last updated on Thu Nov 21 2024 00:03:02 GMT+0000 (Coordinated Universal Time)

1 07530U 74089B 24325.49761291 -.00000040 00000+0 40002-4 0 9992 2 07530 101.9894 321.6706 0012288 144.9340 23.7905 12.53682700288626
UTC large
Height (km)
Speed (km/s)
/
Latitude / Longitude
Inclination (degrees)
Orbital Period (minutes)
Azimuth
Elevation
Range (km)
Doppler Factor

Next 0 passes for location: London (51.5072 / 0.1276)

Sorry there are no passes over London.